DJ2RF Weather Reports


Display with metric or nautical units.
time (UTC)temp
F
wind
direction
speed
MPH
gust
MPH
rain 1hr
in
rain 24hr
in
rain mn
in
humidity
%
barometer
mb
20260505223422 56 360 0.0 0.0 0.00 0.00 0.00 82 1010.7
20260505222551 56 360 0.0 0.0 0.00 0.00 0.00 82 1010.7
20260505221737 56 360 0.0 0.0 0.00 0.00 0.00 82 1010.4
20260505220755 56 360 0.0 0.0 0.00 0.00 0.00 81 1010.3
20260505215825 57 360 0.0 0.0 0.00 0.00 0.00 81 1010.2
20260505214920 57 360 0.0 0.0 0.00 0.00 0.00 81 1010.2
20260505214008 57 360 0.0 0.0 0.00 0.00 0.00 81 1010.3
20260505213147 57 360 0.0 0.0 0.00 0.00 0.00 81 1010.5
20260505212341 57 360 0.0 0.0 0.00 0.00 0.00 81 1010.5
20260505211343 57 360 0.0 0.0 0.00 0.00 0.00 81 1010.7
20260505210507 57 360 0.0 0.0 0.00 0.00 0.00 81 1010.6
20260505205629 57 360 0.0 0.0 0.00 0.00 0.01 80 1010.6
20260505204714 57 360 0.0 0.0 0.00 0.00 0.01 80 1010.5
20260505203844 57 360 0.0 0.0 0.00 0.00 0.01 80 1010.4
20260505202902 56 360 0.0 0.0 0.00 0.00 0.01 80 1010.3
20260505202029 56 360 0.0 0.0 0.00 0.00 0.01 80 1010.2
20260505201158 56 360 0.0 0.0 0.00 0.00 0.01 80 1010.0
20260505200302 57 360 0.0 0.0 0.00 0.00 0.02 79 1009.9
20260505195459 57 360 0.0 0.0 0.00 0.00 0.02 79 1009.8
20260505194642 58 360 0.0 0.0 0.00 0.00 0.02 78 1009.8
20260505193827 58 360 0.0 0.0 0.00 0.00 0.02 78 1009.6
20260505192836 58 360 0.0 0.0 0.00 0.00 0.02 78 1009.4
20260505191849 58 360 0.0 0.0 0.00 0.00 0.02 78 1009.4
20260505191007 58 360 0.0 0.0 0.00 0.00 0.02 78 1009.4
20260505190155 58 360 0.0 0.0 0.00 0.00 0.02 78 1009.2
20260505185201 59 360 0.0 0.0 0.00 0.00 0.02 77 1008.9
20260505184217 59 360 0.0 0.0 0.00 0.00 0.02 76 1008.7
20260505183341 59 360 0.0 0.0 0.00 0.00 0.02 76 1008.6
20260505182427 60 360 0.0 0.0 0.00 0.00 0.02 75 1008.8
20260505181456 60 360 0.0 0.0 0.00 0.00 0.02 76 1008.8
20260505180502 60 360 0.0 0.0 0.00 0.00 0.02 76 1008.8
20260505175557 60 360 0.0 0.0 0.00 0.00 0.02 76 1008.7
20260505174712 61 360 0.0 0.0 0.00 0.00 0.02 75 1008.8
20260505173803 61 360 0.0 0.0 0.00 0.00 0.02 75 1008.5
20260505172958 61 360 0.0 0.0 0.00 0.00 0.02 74 1008.6
20260505172147 61 360 0.0 0.0 0.00 0.00 0.02 74 1008.6
20260505171320 62 360 0.0 0.0 0.00 0.00 0.02 72 1008.5
20260505170409 62 360 0.0 0.0 0.00 0.00 0.02 73 1008.6
20260505165539 62 360 0.0 0.0 0.00 0.00 0.02 73 1008.4
20260505164716 62 360 0.0 0.0 0.00 0.00 0.02 73 1008.6
20260505163745 62 360 0.0 0.0 0.00 0.00 0.02 72 1008.5
20260505162923 62 360 0.0 0.0 0.00 0.00 0.02 72 1008.7
20260505161952 62 360 0.0 0.0 0.00 0.00 0.02 71 1008.8
20260505161004 62 360 0.0 0.0 0.00 0.00 0.02 71 1008.6
20260505152442 63 360 0.0 0.0 0.00 0.00 0.02 70 1008.5
20260505151516 63 360 0.0 0.0 0.00 0.00 0.02 69 1008.5
20260505150653 64 360 0.0 0.0 0.00 0.00 0.02 68 1008.6
20260505124837 74 360 0.0 0.0 0.00 0.00 0.02 48 1008.0
20260505123942 74 360 0.0 0.0 0.00 0.00 0.02 49 1008.1
20260505123016 75 360 0.0 0.0 0.00 0.00 0.02 48 1008.1
20260505122147 75 360 0.0 0.0 0.00 0.00 0.02 48 1008.1
20260505121326 75 360 0.0 0.0 0.00 0.00 0.02 49 1008.1
20260505120413 75 360 0.0 0.0 0.00 0.00 0.02 49 1008.2
20260505115603 75 360 0.0 0.0 0.00 0.00 0.02 52 1008.2
20260505114707 74 360 0.0 0.0 0.00 0.00 0.02 50 1008.4
20260505113814 74 360 0.0 0.0 0.00 0.00 0.02 51 1008.4
20260505113017 74 360 0.0 0.0 0.00 0.00 0.02 50 1008.4
20260505112052 74 360 0.0 0.0 0.00 0.00 0.02 51 1008.5
20260505111242 73 360 0.0 0.0 0.00 0.00 0.02 54 1008.7
20260505110433 73 360 0.0 0.0 0.00 0.00 0.02 54 1008.7
20260505102111 69 360 0.0 0.0 0.00 0.00 0.02 59 1009.3
20260505101117 68 360 0.0 0.0 0.00 0.00 0.02 61 1009.4
20260505100251 70 360 0.0 0.0 0.00 0.00 0.02 61 1009.4
20260505095357 69 360 0.0 0.0 0.00 0.00 0.02 63 1009.5
20260505094537 69 360 0.0 0.0 0.00 0.00 0.02 63 1009.5
20260505093546 68 360 0.0 0.0 0.00 0.00 0.02 65 1009.6
20260505092720 68 360 0.0 0.0 0.00 0.00 0.02 64 1009.8
20260505091745 67 360 0.0 0.0 0.00 0.00 0.02 65 1009.8
20260505090942 67 360 0.0 0.0 0.00 0.00 0.02 64 1009.9
20260505090045 66 360 0.0 0.0 0.00 0.00 0.02 68 1010.0
20260505085152 66 360 0.0 0.0 0.00 0.00 0.02 70 1010.0
20260505084202 65 360 0.0 0.0 0.00 0.00 0.02 71 1010.1
20260505083248 64 360 0.0 0.0 0.00 0.00 0.02 72 1010.3
20260505082407 0 360 0.0 0.0 0.00 0.00 0.00
20260505081543 58 360 0.0 0.0 0.00 0.00 0.02 80 1010.7
20260505080722 58 360 0.0 0.0 0.00 0.00 0.02 80 1010.6
20260505075817 58 360 0.0 0.0 0.00 0.00 0.02 80 1010.6
20260505074958 58 360 0.0 0.0 0.00 0.00 0.02 80 1010.6
20260505074041 58 360 0.0 0.0 0.00 0.00 0.02 80 1010.6
20260505073100 58 360 0.0 0.0 0.00 0.00 0.02 80 1010.6
20260505072136 58 360 0.0 0.0 0.00 0.00 0.02 80 1010.6
20260505071332 58 360 0.0 0.0 0.00 0.00 0.02 80 1010.6
20260505070439 57 360 0.0 0.0 0.00 0.00 0.02 80 1010.7
20260505065527 57 360 0.0 0.0 0.00 0.00 0.02 81 1010.7
20260505064540 52 360 0.0 0.0 0.00 0.00 0.02 85 1011.1
20260505063732 52 360 0.0 0.0 0.00 0.00 0.02 85 1011.1
20260505062922 52 360 0.0 0.0 0.00 0.00 0.02 85 1011.1
20260505061939 52 360 0.0 0.0 0.00 0.00 0.02 85 1011.1
20260505060958 52 360 0.0 0.0 0.00 0.00 0.02 85 1011.1
20260505060054 52 360 0.0 0.0 0.00 0.00 0.02 85 1011.1
20260505055142 52 360 0.0 0.0 0.00 0.00 0.02 85 1011.1
20260505054301 52 360 0.0 0.0 0.00 0.00 0.02 85 1011.1
20260505053351 52 360 0.0 0.0 0.00 0.00 0.02 85 1011.1
20260505052355 52 360 0.0 0.0 0.00 0.00 0.02 85 1011.1
20260505051443 52 360 0.0 0.0 0.00 0.00 0.02 85 1011.1
20260505050605 52 360 0.0 0.0 0.00 0.00 0.02 85 1011.1
20260505041152 52 360 0.0 0.0 0.00 0.00 0.02 84 1011.1
20260505040255 52 360 0.0 0.0 0.00 0.00 0.02 84 1011.1
20260505035423 52 360 0.0 0.0 0.00 0.00 0.02 84 1011.2
20260505034623 52 360 0.0 0.0 0.00 0.00 0.02 84 1011.2
20260505033744 53 360 0.0 0.0 0.00 0.00 0.02 84 1011.2
20260505032920 53 360 0.0 0.0 0.00 0.00 0.02 84 1011.3
20260505031957 53 360 0.0 0.0 0.00 0.00 0.02 83 1011.4
20260505031005 54 360 0.0 0.0 0.00 0.00 0.02 83 1011.3
20260505030017 54 360 0.0 0.0 0.00 0.00 0.02 84 1011.5
20260505025114 54 360 0.0 0.0 0.00 0.00 0.02 84 1011.5
20260505024228 54 360 0.0 0.0 0.00 0.00 0.02 84 1011.7
20260505023323 55 360 0.0 0.0 0.00 0.00 0.02 84 1011.7
20260505022406 55 360 0.0 0.0 0.00 0.00 0.02 84 1011.6
20260505021442 56 360 0.0 0.0 0.00 0.00 0.02 84 1011.8
20260505020459 56 360 0.0 0.0 0.00 0.00 0.02 84 1011.8
20260505015655 56 360 0.0 0.0 0.00 0.00 0.02 83 1011.8
20260505014720 56 360 0.0 0.0 0.00 0.00 0.02 82 1011.8
20260505013912 56 360 0.0 0.0 0.00 0.00 0.02 82 1011.8
20260505013032 56 360 0.0 0.0 0.00 0.00 0.02 83 1011.8
20260505012032 57 360 0.0 0.0 0.00 0.00 0.02 82 1011.8
20260505011132 57 360 0.0 0.0 0.00 0.00 0.02 82 1011.8
20260505010153 58 360 0.0 0.0 0.00 0.00 0.02 82 1011.8
20260505005157 57 360 0.0 0.0 0.00 0.00 0.02 82 1012.0
20260505004205 58 360 0.0 0.0 0.00 0.00 0.02 81 1012.2
20260505003331 58 360 0.0 0.0 0.00 0.00 0.02 82 1012.3
20260505002527 58 360 0.0 0.0 0.00 0.00 0.02 82 1012.1
20260505001647 58 360 0.0 0.0 0.00 0.00 0.02 82 1012.2
20260505000710 58 360 0.0 0.0 0.00 0.00 0.02 83 1012.3
20260504235735 58 360 0.0 0.0 0.00 0.00 0.02 83 1012.5
20260504234750 58 360 0.0 0.0 0.00 0.00 0.02 82 1012.5
20260504233834 58 360 0.0 0.0 0.00 0.00 0.02 82 1012.7
20260504232958 58 360 0.0 0.0 0.00 0.00 0.02 82 1012.8
20260504232037 58 360 0.0 0.0 0.00 0.00 0.02 82 1012.8
20260504231214 58 360 0.0 0.0 0.00 0.00 0.02 82 1012.8
20260504230412 58 360 0.0 0.0 0.00 0.00 0.02 83 1012.8
20260504225447 58 360 0.0 0.0 0.00 0.00 0.02 82 1013.0
20260504224522 58 360 0.0 0.0 0.00 0.00 0.02 82 1013.1